Temp
-11 -12 -12 -12 -11 -11 -11 -11 -11 -11 -11 -11 -11 -11 -11 -11 -11 -11 -11 -12 -12 -12 -12 -12 -12 -13 -14 -15 -15 -15 -15 -16 -16 -16 -16 -16 -17 -18 -17 -16 -15 -15 -14 -14 -13
-12 -12 -12 -12 -12 -11 -11 -11 -11 -11 -11 -11 -12 -12 -12 -12 -12 -11 -12 -12 -12 -13 -13 -13 -13 -14 -15 -15 -16 -16 -17 -17 -17 -17 -17 -17 -17 -18 -20 -18 -17 -16 -15 -15 -14
-12 -12 -12 -12 -12 -11 -11 -11 -11 -12 -11 -12 -12 -12 -12 -12 -12 -12 -12 -13 -13 -13 -14 -14 -15 -16 -16 -16 -17 -17 -18 -18 -18 -18 -18 -18 -18 -18 -20 -20 -18 -17 -16 -15 -15
-12 -12 -12 -12 -12 -11 -12 -12 -12 -12 -12 -12 -12 -12 -12 -12 -12 -13 -13 -13 -13 -14 -15 -16 -16 -17 -17 -18 -18 -18 -18 -19 -19 -19 -19 -19 -19 -19 -20 -21 -21 -19 -17 -17 -16
-12 -12 -12 -12 -12 -12 -12 -12 -12 -12 -12 -12 -12 -12 -12 -12 -12 -13 -13 -14 -14 -15 -16 -17 -17 -18 -18 -18 -18 -18 -18 -19 -19 -19 -20 -20 -20 -20 -19 -20 -21 -21 -20 -18 -17
-12 -12 -12 -12 -12 -12 -12 -12 -12 -12 -12 -12 -12 -12 -12 -12 -12 -13 -14 -14 -15 -16 -17 -18 -18 -18 -18 -18 -19 -19 -19 -19 -20 -20 -20 -20 -20 -20 -20 -21 -20 -20 -20 -20 -19
-12 -12 -12 -12 -12 -12 -12 -12 -12 -12 -12 -12 -13 -12 -12 -13 -13 -13 -14 -14 -15 -17 -18 -18 -18 -18 -18 -19 -19 -20 -20 -20 -21 -21 -22 -22 -21 -21 -21 -20 -19 -19 -19 -20 -19
-13 -13 -13 -13 -12 -12 -12 -12 -12 -12 -12 -13 -12 -12 -13 -13 -13 -14 -14 -15 -16 -17 -17 -18 -18 -19 -19 -19 -19 -20 -20 -20 -21 -22 -22 -22 -21 -22 -21 -20 -19 -19 -19 -19 -19
-13 -13 -13 -13 -13 -13 -12 -12 -12 -13 -13 -13 -12 -12 -13 -13 -14 -14 -15 -16 -16 -17 -17 -18 -18 -19 -19 -20 -20 -20 -20 -21 -21 -22 -22 -21 -21 -22 -21 -21 -20 -20 -19 -19 -19
-13 -13 -13 -13 -13 -13 -13 -13 -13 -13 -13 -13 -12 -12 -13 -13 -14 -15 -16 -16 -17 -17 -17 -18 -18 -19 -19 -19 -20 -20 -20 -21 -21 -22 -22 -22 -22 -23 -22 -21 -21 -21 -20 -20 -20
-13 -13 -13 -13 -13 -13 -13 -13 -13 -13 -13 -13 -13 -13 -13 -14 -15 -15 -16 -17 -17 -17 -17 -17 -18 -18 -18 -19 -19 -19 -19 -19 -22 -23 -22 -22 -22 -23 -22 -22 -22 -21 -21 -21 -21
-14 -14 -14 -13 -13 -13 -13 -13 -13 -13 -13 -13 -13 -13 -13 -14 -15 -15 -16 -16 -17 -17 -17 -18 -18 -18 -19 -19 -19 -21 -20 -20 -21 -22 -23 -22 -23 -24 -23 -23 -23 -22 -21 -22 -22
-14 -14 -14 -14 -14 -14 -13 -13 -13 -13 -13 -13 -13 -13 -13 -14 -15 -15 -16 -16 -16 -17 -17 -18 -18 -19 -19 -19 -20 -21 -21 -21 -21 -22 -23 -23 -24 -24 -23 -22 -23 -23 -23 -23 -23
-14 -14 -14 -14 -14 -14 -14 -14 -13 -13 -13 -13 -13 -13 -14 -15 -15 -16 -16 -16 -17 -17 -17 -17 -18 -19 -20 -20 -21 -21 -22 -22 -23 -23 -24 -24 -26 -24 -24 -24 -24 -24 -23 -24 -24
-14 -14 -14 -14 -14 -14 -14 -13 -13 -13 -13 -13 -13 -14 -14 -15 -16 -16 -16 -17 -17 -17 -17 -17 -18 -19 -20 -20 -21 -22 -23 -23 -24 -24 -25 -26 -26 -26 -25 -26 -25 -24 -24 -25 -24
-14 -14 -14 -14 -14 -14 -14 -13 -14 -14 -13 -14 -14 -14 -15 -15 -16 -16 -17 -17 -17 -17 -17 -17 -18 -19 -20 -21 -21 -23 -24 -24 -25 -26 -26 -27 -26 -26 -26 -26 -26 -25 -25 -25 -24
-14 -14 -14 -14 -14 -14 -14 -14 -14 -14 -14 -14 -14 -14 -14 -15 -15 -16 -16 -16 -17 -17 -17 -18 -18 -19 -20 -21 -22 -23 -24 -25 -26 -26 -26 -27 -27 -26 -25 -25 -26 -25 -25 -24 -24
-14 -14 -14 -14 -14 -14 -14 -14 -14 -14 -14 -14 -15 -15 -14 -15 -15 -16 -16 -16 -17 -17 -18 -18 -18 -20 -20 -21 -23 -24 -24 -25 -26 -26 -27 -27 -26 -26 -25 -25 -26 -26 -25 -25 -25
-14 -14 -14 -14 -14 -14 -14 -14 -14 -14 -14 -14 -15 -15 -15 -15 -15 -16 -16 -16 -17 -17 -18 -18 -19 -20 -21 -22 -23 -24 -26 -26 -27 -27 -27 -27 -27 -26 -26 -26 -26 -26 -26 -26 -26
-14 -14 -14 -14 -15 -14 -14 -14 -14 -14 -14 -14 -15 -15 -15 -15 -16 -16 -16 -17 -17 -18 -19 -19 -19 -20 -21 -22 -24 -25 -26 -27 -27 -27 -27 -27 -27 -27 -27 -27 -26 -26 -27 -26 -26
-14 -14 -14 -15 -15 -14 -14 -14 -14 -14 -14 -14 -15 -15 -15 -15 -16 -16 -16 -17 -17 -18 -19 -19 -20 -20 -21 -22 -24 -25 -26 -27 -27 -27 -27 -26 -27 -26 -26 -26 -27 -27 -27 -27 -26
-14 -14 -15 -15 -15 -15 -14 -15 -14 -14 -14 -14 -16 -16 -16 -16 -16 -16 -16 -17 -17 -17 -18 -19 -20 -20 -21 -21 -23 -25 -26 -27 -27 -27 -27 -26 -27 -26 -26 -27 -27 -27 -27 -26 -25
-14 -15 -15 -15 -15 -15 -15 -15 -15 -15 -14 -15 -16 -16 -16 -16 -16 -16 -16 -16 -17 -17 -18 -19 -19 -20 -20 -21 -23 -23 -24 -26 -27 -27 -26 -26 -27 -27 -27 -27 -27 -26 -26 -25 -24
-14 -15 -15 -15 -15 -15 -15 -15 -15 -15 -15 -15 -16 -16 -16 -16 -16 -16 -16 -17 -17 -17 -18 -18 -19 -20 -21 -21 -21 -23 -23 -23 -24 -25 -26 -26 -26 -26 -26 -26 -27 -26 -25 -25 -22
-15 -15 -15 -15 -15 -15 -15 -15 -15 -15 -15 -15 -15 -16 -17 -16 -16 -16 -17 -17 -17 -17 -18 -18 -19 -20 -20 -20 -20 -21 -22 -22 -23 -24 -24 -24 -24 -25 -24 -24 -24 -24 -23 -22 -22
-15 -15 -15 -15 -15 -15 -15 -15 -15 -15 -15 -15 -15 -16 -17 -17 -17 -17 -17 -17 -17 -17 -18 -18 -19 -19 -20 -20 -20 -20 -21 -22 -22 -23 -23 -23 -23 -23 -24 -24 -22 -22 -21 -21 -21
-15 -15 -15 -15 -15 -15 -15 -15 -15 -15 -15 -15 -15 -16 -17 -17 -17 -17 -17 -17 -18 -18 -18 -18 -18 -18 -19 -20 -20 -20 -20 -20 -21 -22 -22 -22 -21 -22 -22 -22 -22 -21 -21 -20 -20
Height
5795 5794 5792 5789 5787 5785 5783 5779 5776 5771 5767 5764 5759 5756 5752 5747 5743 5737 5731 5726 5720 5713 5705 5696 5687 5680 5674 5669 5666 5662 5660 5656 5653 5648 5645 5638 5635 5629 5631 5637 5643 5648 5655 5662 5671
5791 5790 5789 5786 5784 5781 5779 5775 5772 5767 5762 5759 5755 5750 5745 5741 5736 5729 5724 5716 5709 5700 5691 5683 5674 5667 5662 5657 5653 5649 5646 5643 5639 5635 5631 5627 5621 5614 5608 5614 5622 5630 5637 5645 5654
5788 5788 5786 5783 5780 5778 5775 5771 5767 5763 5758 5755 5750 5745 5740 5733 5728 5722 5713 5705 5697 5687 5678 5670 5661 5655 5649 5644 5640 5637 5634 5628 5626 5621 5618 5616 5610 5603 5596 5602 5606 5614 5623 5629 5637
5784 5783 5780 5780 5777 5774 5771 5768 5763 5758 5754 5750 5745 5739 5733 5727 5722 5712 5704 5695 5684 5674 5665 5657 5650 5644 5639 5634 5629 5625 5621 5616 5613 5608 5605 5602 5597 5596 5592 5597 5595 5599 5607 5611 5621
5780 5778 5776 5776 5774 5771 5767 5764 5759 5754 5750 5745 5740 5735 5728 5722 5714 5704 5694 5683 5672 5662 5652 5644 5638 5633 5628 5623 5618 5612 5608 5603 5599 5595 5592 5587 5586 5585 5585 5586 5589 5588 5591 5598 5604
5777 5774 5773 5772 5770 5768 5764 5759 5755 5750 5745 5741 5735 5729 5722 5715 5706 5695 5682 5670 5660 5649 5639 5633 5628 5621 5615 5608 5601 5596 5591 5588 5584 5581 5575 5572 5572 5571 5574 5574 5576 5579 5583 5585 5588
5774 5771 5770 5768 5766 5763 5759 5755 5751 5746 5740 5736 5730 5724 5717 5709 5697 5685 5671 5660 5647 5637 5631 5623 5615 5607 5598 5591 5584 5578 5573 5569 5566 5563 5559 5555 5558 5559 5558 5558 5561 5564 5569 5575 5578
5771 5768 5767 5764 5761 5759 5755 5751 5746 5741 5737 5730 5725 5719 5711 5702 5688 5675 5661 5647 5638 5629 5620 5610 5601 5593 5585 5576 5570 5562 5558 5552 5550 5548 5544 5541 5547 5546 5544 5547 5549 5552 5556 5561 5567
5768 5766 5763 5760 5757 5755 5751 5747 5743 5738 5732 5726 5721 5714 5705 5693 5681 5666 5656 5645 5633 5623 5612 5600 5591 5582 5574 5567 5561 5553 5546 5542 5539 5533 5529 5529 5532 5530 5532 5534 5537 5538 5541 5546 5552
5764 5762 5759 5757 5754 5751 5747 5743 5739 5734 5729 5722 5717 5709 5698 5687 5674 5661 5649 5638 5627 5617 5606 5594 5584 5574 5567 5559 5552 5545 5538 5533 5528 5526 5520 5519 5521 5520 5521 5523 5524 5527 5530 5533 5536
5760 5759 5756 5753 5751 5747 5744 5741 5738 5734 5727 5721 5714 5704 5693 5680 5669 5657 5645 5634 5624 5613 5602 5590 5580 5571 5562 5554 5546 5538 5530 5524 5520 5515 5509 5509 5511 5510 5508 5510 5511 5514 5517 5520 5521
5756 5755 5752 5750 5748 5745 5741 5736 5731 5728 5723 5716 5709 5700 5688 5677 5666 5653 5643 5633 5622 5612 5600 5589 5579 5568 5558 5547 5537 5529 5520 5512 5507 5502 5499 5497 5499 5498 5497 5498 5501 5502 5504 5507 5508
5752 5751 5749 5747 5745 5742 5738 5733 5728 5725 5722 5714 5706 5696 5684 5673 5661 5651 5642 5631 5621 5611 5599 5588 5577 5564 5551 5541 5530 5519 5508 5500 5493 5490 5488 5488 5489 5489 5487 5488 5492 5494 5496 5497 5497
5748 5747 5745 5744 5743 5739 5734 5730 5726 5723 5718 5711 5702 5691 5680 5669 5660 5648 5639 5630 5620 5609 5597 5586 5573 5560 5547 5536 5524 5513 5500 5488 5480 5476 5477 5477 5481 5477 5480 5481 5485 5487 5490 5491 5490
5744 5743 5742 5740 5739 5735 5732 5727 5724 5721 5716 5709 5698 5687 5677 5667 5657 5648 5639 5627 5618 5607 5597 5585 5572 5560 5545 5533 5520 5507 5495 5484 5475 5472 5472 5472 5474 5473 5475 5479 5480 5483 5485 5484 5484
5740 5739 5738 5737 5735 5732 5728 5725 5722 5719 5711 5704 5695 5686 5677 5667 5658 5648 5639 5628 5617 5605 5594 5583 5571 5558 5545 5529 5517 5501 5491 5482 5476 5474 5474 5474 5474 5475 5476 5478 5477 5479 5478 5479 5479
5736 5734 5734 5733 5731 5728 5725 5723 5721 5715 5710 5702 5694 5687 5677 5667 5658 5651 5640 5629 5616 5605 5594 5585 5571 5557 5545 5535 5515 5503 5490 5481 5477 5475 5476 5476 5476 5474 5475 5476 5476 5476 5474 5475 5475
5731 5731 5730 5729 5727 5724 5722 5721 5717 5712 5707 5700 5693 5685 5678 5668 5660 5652 5642 5629 5616 5606 5596 5584 5571 5560 5544 5526 5509 5498 5488 5482 5477 5477 5477 5477 5475 5475 5473 5473 5472 5470 5470 5471 5472
5726 5726 5726 5726 5723 5721 5721 5718 5713 5709 5704 5697 5691 5685 5678 5669 5661 5654 5644 5632 5620 5609 5598 5587 5575 5562 5546 5528 5515 5502 5489 5484 5480 5479 5479 5479 5478 5476 5474 5470 5468 5468 5469 5470 5469
5721 5721 5721 5721 5719 5718 5717 5715 5711 5706 5702 5696 5690 5685 5678 5669 5662 5655 5646 5635 5625 5614 5603 5592 5580 5566 5552 5536 5521 5508 5497 5490 5485 5484 5483 5483 5481 5478 5477 5476 5473 5470 5469 5469 5470
5716 5717 5717 5716 5716 5715 5714 5711 5707 5703 5700 5695 5689 5684 5678 5671 5664 5658 5650 5640 5629 5619 5608 5596 5584 5573 5554 5539 5529 5520 5507 5498 5493 5490 5489 5486 5486 5483 5481 5477 5474 5473 5473 5473 5475
5711 5712 5712 5712 5713 5711 5711 5708 5704 5702 5697 5692 5688 5684 5678 5672 5666 5660 5653 5643 5633 5623 5612 5601 5591 5575 5562 5549 5538 5526 5515 5507 5503 5501 5496 5493 5492 5487 5482 5480 5479 5478 5478 5480 5482
5704 5707 5708 5708 5709 5708 5707 5705 5702 5699 5695 5691 5687 5684 5679 5673 5668 5662 5655 5646 5637 5627 5616 5607 5595 5584 5572 5560 5551 5542 5528 5518 5514 5510 5504 5499 5496 5493 5489 5487 5486 5483 5484 5487 5490
5699 5701 5703 5703 5704 5705 5703 5702 5698 5697 5694 5690 5686 5683 5679 5673 5668 5663 5657 5649 5641 5631 5622 5613 5602 5593 5583 5571 5562 5553 5545 5536 5528 5520 5514 5506 5505 5502 5498 5495 5491 5492 5492 5494 5501
5693 5696 5697 5699 5700 5700 5700 5698 5696 5694 5692 5688 5685 5682 5678 5673 5669 5664 5659 5652 5645 5636 5628 5619 5610 5602 5594 5584 5574 5568 5561 5552 5545 5539 5532 5527 5520 5512 5510 5507 5504 5504 5505 5508 5510
5688 5690 5692 5694 5696 5696 5695 5695 5693 5691 5691 5686 5683 5680 5677 5673 5669 5665 5660 5656 5649 5641 5633 5625 5618 5610 5603 5595 5586 5578 5574 5568 5559 5549 5545 5538 5530 5525 5518 5516 5515 5513 5511 5518 5520
5681 5685 5687 5689 5691 5691 5691 5690 5690 5689 5688 5686 5682 5678 5675 5673 5669 5665 5661 5657 5652 5646 5638 5631 5624 5617 5610 5605 5597 5592 5583 5577 5574 5562 5553 5549 5543 5536 5529 5527 5525 5525 5527 5531 5539
Wind_Speed
15 15 15 16 18 20 21 23 26 28 30 29 26 28 31 33 34 37 42 48 51 53 56 56 55 53 42 40 41 43 42 42 42 45 43 47 48 52 71 73 73 71 68 65 64
18 16 17 18 20 21 24 25 28 30 32 29 28 30 33 35 38 42 49 54 56 55 57 54 54 48 43 42 44 45 44 44 46 48 46 45 49 50 54 71 70 71 69 66 66
18 19 19 20 21 23 26 27 31 33 33 30 31 34 35 38 42 48 53 58 58 58 56 55 50 43 42 44 45 45 45 46 47 47 46 45 46 47 38 48 62 70 69 69 67
19 20 20 22 22 23 28 29 32 35 33 30 32 34 37 41 48 52 58 61 62 58 55 49 45 43 41 41 41 45 46 48 47 50 48 46 46 42 34 30 45 51 60 64 67
19 19 20 22 21 24 28 30 33 35 33 31 34 36 40 46 53 58 62 65 62 59 52 43 41 42 42 46 50 52 53 55 54 53 50 51 49 47 44 40 40 44 50 56 61
20 21 21 22 21 26 28 31 34 34 32 33 35 38 43 50 56 62 67 68 67 58 46 44 45 47 48 52 57 59 60 58 56 54 54 55 53 52 49 48 46 44 44 45 51
20 20 20 20 22 27 28 31 33 34 32 34 37 42 46 54 59 66 71 73 57 46 44 47 48 51 56 60 62 62 58 53 49 48 51 54 53 52 50 52 51 48 44 43 44
18 19 19 22 25 27 28 31 31 30 32 36 39 43 51 56 64 71 66 52 50 49 48 50 52 53 52 50 46 46 43 41 40 41 46 50 44 43 47 49 51 52 50 47 44
19 20 22 23 24 26 28 30 29 29 33 38 41 45 52 60 68 60 52 50 46 47 46 46 43 42 40 39 37 36 35 32 31 32 34 35 33 35 39 43 49 52 52 51 49
19 20 21 20 23 26 28 29 28 30 34 38 42 48 55 63 58 53 53 51 47 48 44 41 38 37 37 36 34 35 36 34 29 24 31 30 28 29 35 38 40 40 43 47 53
19 20 21 21 23 27 27 27 28 30 34 36 42 49 57 59 50 50 50 46 50 45 43 39 38 38 37 37 36 37 38 36 29 27 33 33 30 30 36 36 37 36 37 40 47
20 21 23 23 23 24 26 27 29 33 37 39 42 52 59 50 47 49 43 46 41 39 39 40 37 38 39 40 41 38 38 39 35 33 34 35 30 32 36 36 34 35 35 35 40
20 20 22 22 23 22 24 26 29 32 34 36 44 53 51 48 46 48 42 38 40 42 41 42 44 43 43 43 42 35 38 38 39 37 36 33 31 28 35 36 31 30 30 31 35
20 21 22 21 22 20 23 24 28 31 32 36 45 51 45 46 46 49 41 41 42 43 46 44 47 44 41 41 37 37 38 38 30 28 25 22 12 26 24 30 25 22 22 24 25
20 22 21 20 21 20 22 23 27 29 32 38 45 44 44 43 45 45 46 40 44 45 46 45 48 43 44 44 41 44 36 32 21 9 4 3 5 15 19 18 20 21 19 19 22
20 21 20 20 20 20 21 22 25 28 32 37 42 37 39 41 43 46 41 42 45 43 42 44 45 45 47 43 46 46 37 24 16 7 8 6 5 8 11 7 14 19 19 15 20
21 20 19 19 19 19 20 22 24 24 30 36 36 33 36 38 41 45 43 44 42 39 40 42 42 45 47 43 46 42 37 16 7 5 5 2 3 2 4 8 11 13 18 18 19
21 20 18 18 17 18 18 22 22 23 28 33 27 29 32 35 38 38 40 44 43 41 41 46 44 48 47 55 51 41 38 14 5 5 9 4 9 4 5 11 14 16 10 10 10
21 20 17 17 16 17 17 20 21 22 27 32 24 25 30 32 30 31 38 45 46 46 47 46 45 47 50 55 51 46 35 20 9 13 15 9 6 7 13 17 19 9 9 10 9
21 19 17 16 16 16 17 19 19 21 26 28 21 22 27 27 25 28 34 40 43 46 50 50 51 49 54 52 47 49 38 26 17 18 18 15 12 12 11 6 8 6 2 7 16
21 18 17 16 15 16 16 17 16 18 24 25 19 19 24 22 22 28 35 38 42 46 49 53 56 53 58 53 47 45 42 29 21 19 20 21 17 15 12 14 14 12 15 22 29
21 18 17 16 16 15 16 15 14 17 22 22 18 17 19 17 21 26 32 36 41 46 51 55 56 60 57 53 47 46 45 37 24 22 22 22 18 14 12 11 13 15 20 33 44
22 20 19 15 15 14 13 14 13 15 19 20 16 15 14 15 22 24 30 35 41 47 51 53 57 59 58 50 44 48 48 42 32 18 17 15 12 10 10 10 14 24 34 44 49
22 20 18 15 15 15 12 13 12 14 17 18 16 13 12 16 20 24 27 33 39 45 49 53 54 54 55 51 51 41 45 46 40 31 22 17 15 14 16 21 24 32 38 46 60
19 19 18 16 15 16 14 13 13 12 15 17 16 14 12 17 18 23 26 32 35 41 45 49 51 49 49 51 50 48 43 42 41 38 33 33 27 32 36 32 24 23 29 40 38
21 20 18 17 17 17 14 14 14 11 14 15 16 14 13 15 18 20 26 28 32 37 40 44 47 47 45 45 50 45 39 41 36 31 35 32 29 25 26 23 30 29 33 43 41
22 20 17 17 17 16 14 14 14 12 12 15 15 13 13 15 16 19 22 25 29 32 36 40 45 46 44 42 42 47 40 36 42 37 37 39 36 33 37 31 41 44 38 35 37
Wind_Direction
288 294 303 311 311 311 312 315 317 319 318 322 319 315 315 314 311 313 312 309 309 307 306 305 304 297 282 285 286 284 285 285 285 286 282 288 296 282 253 245 242 242 241 238 238
281 285 295 304 307 308 312 315 319 320 321 322 319 316 317 314 314 315 314 314 313 310 308 308 305 286 277 282 283 282 284 287 285 287 285 286 289 298 255 241 240 239 239 236 232
282 283 289 299 304 308 312 315 320 322 324 323 321 318 317 314 316 316 315 317 316 310 309 310 297 278 282 282 282 281 287 288 286 286 284 285 284 290 271 243 238 239 239 240 234
289 284 289 296 301 308 312 318 321 323 324 321 319 316 315 318 318 318 318 318 317 312 313 306 287 287 288 289 288 288 290 288 287 285 284 281 277 282 280 250 241 236 238 240 238
299 295 295 294 301 307 314 319 324 323 322 321 318 318 321 321 320 319 319 320 319 317 312 303 297 295 292 292 291 290 288 287 286 283 280 276 275 273 267 258 250 245 236 235 237
302 300 299 296 298 309 317 322 323 323 322 320 321 324 325 321 320 320 320 321 320 317 307 304 302 300 297 294 292 291 288 285 282 278 273 273 271 269 269 266 261 252 244 240 235
306 301 299 296 301 312 320 322 324 324 321 321 327 328 326 322 322 322 324 323 325 323 315 308 303 300 298 297 293 292 292 287 281 275 270 266 268 266 269 268 267 265 257 247 241
303 304 302 299 304 314 322 324 325 324 322 329 330 328 325 324 325 327 329 332 335 332 323 315 308 304 304 304 300 297 295 292 286 276 270 271 269 266 264 264 264 265 264 256 245
302 302 302 306 312 323 324 325 328 324 329 329 331 327 327 328 329 333 335 337 337 339 332 325 325 322 319 318 315 308 308 304 297 284 277 271 267 268 263 262 260 261 259 253 248
298 301 305 313 319 324 322 329 327 328 331 330 331 328 330 330 336 337 340 343 346 344 343 339 340 337 336 333 327 319 311 307 301 284 278 276 273 271 269 265 261 260 260 257 253
295 296 303 313 321 322 326 328 327 328 329 332 329 331 332 336 340 339 346 347 346 348 346 345 345 341 335 331 325 317 310 305 296 285 283 278 277 275 266 262 260 259 253 255 252
294 291 298 308 317 320 327 327 333 330 331 332 331 334 333 340 341 346 351 350 358 357 353 349 347 341 336 329 329 323 313 304 291 283 275 277 276 269 270 268 269 268 263 267 264
292 292 294 306 315 323 328 330 329 326 329 332 333 334 339 344 344 348 351 356 353 348 350 348 346 340 339 342 339 336 326 312 292 283 276 272 273 264 264 265 270 265 270 273 265
291 289 293 305 315 326 329 332 326 324 330 334 336 340 345 345 348 351 345 346 353 356 352 352 349 349 344 350 341 343 344 327 302 278 275 261 239 262 257 258 256 261 269 275 253
288 287 293 303 315 324 332 333 325 326 333 337 341 345 347 350 350 355 350 350 350 350 352 352 352 353 351 350 351 346 344 348 332 315 282 319 231 241 238 248 263 262 269 265 247
284 287 293 307 315 324 333 332 326 333 339 341 345 348 353 353 352 353 352 351 349 350 351 353 356 354 356 351 351 350 351 348 346 36 70 109 132 272 237 251 267 265 259 251 251
280 280 290 304 316 326 328 327 328 334 336 344 348 353 2 355 359 356 354 349 358 4 360 359 5 358 353 351 352 351 353 353 27 141 201 87 31 351 234 224 246 276 279 255 263
275 275 284 299 315 325 324 327 329 333 341 345 351 358 5 6 10 15 14 13 13 9 7 9 7 0 356 355 359 2 6 27 65 109 91 117 41 10 310 289 306 266 260 249 232
270 271 280 292 310 318 316 321 328 331 342 345 350 357 3 10 22 25 20 21 22 19 16 15 12 8 9 3 5 6 14 33 56 88 62 81 45 1 354 350 357 345 239 244 210
265 267 276 291 303 314 307 313 324 332 342 345 348 356 3 14 26 16 13 14 17 21 22 19 17 14 17 17 14 16 20 35 69 75 80 70 63 50 67 87 72 62 99 145 130
263 261 273 286 301 304 302 307 322 328 341 345 348 356 2 15 21 9 11 13 15 18 20 21 23 23 25 27 25 21 29 35 55 71 84 87 77 84 76 62 71 116 134 133 128
257 258 269 281 294 294 294 304 319 328 340 344 341 352 6 15 8 2 6 11 14 17 20 22 24 29 34 38 32 29 30 39 62 59 79 78 87 77 85 90 95 124 132 127 126
246 253 259 271 287 286 292 303 315 326 337 342 337 349 360 359 359 3 4 8 12 17 18 21 23 31 34 40 35 48 43 34 48 56 58 55 84 82 82 85 116 132 129 127 126
245 249 253 265 277 273 288 298 310 317 333 338 334 334 343 347 349 353 359 8 11 17 19 19 24 28 38 40 38 41 52 54 52 51 57 69 76 81 108 118 133 130 125 128 119
241 248 250 262 270 268 270 289 298 311 325 332 329 313 326 336 340 349 354 4 10 16 19 21 23 27 34 43 47 47 53 59 61 60 55 57 88 115 102 105 82 91 102 111 109
240 245 248 257 266 267 269 277 283 300 316 326 324 315 305 322 332 330 345 357 8 14 18 22 25 27 33 38 49 52 47 51 49 53 56 62 68 53 47 59 70 81 106 108 112
240 241 247 255 263 259 269 268 276 291 309 319 324 322 308 315 324 334 339 349 1 10 17 21 25 28 31 36 46 53 54 50 52 46 50 60 71 65 66 73 78 88 97 105 116